"Pseudo-MPEC" for or02156

Created 2023 Jan 30 9:22:24 UT using Find_Orb

Click here for an explanation of pseudo-MPECs

 
 Astrometry: 
     or02156*KC2023 01 25DUiAstrometryUH7/OE6yredacted;*mclick?2YQherevDT9v!6J43
     or02156 KC2023 01 25n7.:PRpsbeX(:#for:ae3s)m%Y7Yrh4c\%qw/IG\e?GCGb?Vb*i5J43
     or02156 KC2023 01 253\:explanationmNM?;(x@yOO#P2hp32=O2]+tAO0Ue$9,AUGJ.hJ43

Station data:
(J43) Oukaïmeden Observatory, Marrakech  (N31.206437 W7.866460)  Morocco.
   Observer C. Rinner. Measurers C. Rinner, M. Ory. 0.5-m f/3 reflector + CCD.

Orbital elements:  or02156
   Perihelion 2023 May 15.75081 +/- 79.9 TT = 18:01:09 (JD 2460080.25081)
Epoch 2023 Jan 25.0 TT = JDT 2459969.5   Earth MOID: 0.0030      AutoNEOCP
M 244.94780828 +/- 90               (J2000 ecliptic)
n   1.03883841 +/- 0.602            Peri.  126.41421 +/- 70
a   0.96554099 +/- 0.373            Node   119.50971 +/- 46
e   0.0629204 +/- 0.226             Incl.    0.72845 +/- 43
P   0.95/346.53d           H 30.95  G  0.15   U 12.4  SR
q 0.90478873 +/- 0.37    Q 1.02629325 +/- 13.5
From 3 observations 2023 Jan. 25 (21.8 min); mean residual 0".31
Residuals in arcseconds: 
230125 J43  .19+  .25-    230125 J43  .37-  .50+    230125 J43  .19+  .25-    

Ephemerides (geocentric):
Date (UTC) HH   RA             Dec           delta  r     elong  mag " sig PA
---- --------  ------------   ------------  ------ ------ -----  --- --------
2023 01 30 09  08 53 13.151   +48 55 11.79  669585 .98887 148.8 20.6  32d 158
2023 01 30 10  08 52 09.267   +49 23 10.28  664040 .98882 148.4 20.6  31d 158
2023 01 30 11  08 51 03.065   +49 51 34.48  658534 .98878 147.9 20.5  31d 158
2023 01 30 12  08 49 54.416   +50 20 24.70  653069 .98873 147.4 20.5  31d 158
2023 01 30 13  08 48 43.182   +50 49 41.21  647645 .98869 146.9 20.5  31d 158
2023 01 30 14  08 47 29.217   +51 19 24.28  642263 .98864 146.4 20.5  31d 158
2023 01 30 15  08 46 12.360   +51 49 34.15  636926 .98859 145.9 20.5  30d 158
2023 01 30 16  08 44 52.440   +52 20 11.05  631633 .98855 145.3 20.5  30d 157
2023 01 30 17  08 43 29.272   +52 51 15.16  626386 .98850 144.8 20.5  30d 157
2023 01 30 18  08 42 02.656   +53 22 46.65  621187 .98846 144.2 20.5  30d 157
2023 01 30 19  08 40 32.377   +53 54 45.65  616037 .98841 143.7 20.5  30d 157
2023 01 30 20  08 38 58.200   +54 27 12.24  610936 .98836 143.1 20.5  29d 156
2023 01 30 21  08 37 19.872   +55 00 06.47  605887 .98832 142.5 20.5  29d 156
2023 01 30 22  08 35 37.118   +55 33 28.33  600891 .98827 141.9 20.5  29d 156
2023 01 30 23  08 33 49.638   +56 07 17.75  595949 .98822 141.3 20.5  29d 155
2023 01 31 00  08 31 57.106   +56 41 34.61  591062 .98818 140.7 20.5  28d 155
2023 01 31 01  08 29 59.168   +57 16 18.71  586233 .98813 140.1 20.5  28d 155
2023 01 31 02  08 27 55.435   +57 51 29.76  581462 .98808 139.5 20.5  28d 154
2023 01 31 03  08 25 45.485   +58 27 07.40  576751 .98803 138.8 20.5  27d 154
2023 01 31 04  08 23 28.853   +59 03 11.16  572103 .98799 138.2 20.5  27d 153
2023 01 31 05  08 21 05.030   +59 39 40.43  567517 .98794 137.5 20.5  27d 153
2023 01 31 06  08 18 33.458   +60 16 34.52  562997 .98789 136.8 20.5  26d 152
2023 01 31 07  08 15 53.524   +60 53 52.55  558543 .98785 136.1 20.5  26d 151
2023 01 31 08  08 13 04.552   +61 31 33.50  554158 .98780 135.4 20.5  26d 151
2023 01 31 09  08 10 05.798   +62 09 36.15  549843 .98775 134.7 20.5  25d 150
2023 01 31 10  08 06 56.439   +62 47 59.09  545600 .98770 134.0 20.5  25d 149
2023 01 31 11  08 03 35.569   +63 26 40.65  541430 .98765 133.2 20.5  25d 149
2023 01 31 12  08 00 02.183   +64 05 38.92  537337 .98761 132.5 20.5  24d 148
2023 01 31 13  07 56 15.172   +64 44 51.67  533321 .98756 131.7 20.5  24d 147
2023 01 31 14  07 52 13.306   +65 24 16.33  529384 .98751 130.9 20.5  24d 146
2023 01 31 15  07 47 55.224   +66 03 49.93  525528 .98746 130.1 20.5  23d 145
2023 01 31 16  07 43 19.419   +66 43 29.08  521756 .98741 129.3 20.6  23d 144
2023 01 31 17  07 38 24.226   +67 23 09.85  518068 .98737 128.5 20.6  23d 142
2023 01 31 18  07 33 07.804   +68 02 47.77  514468 .98732 127.7 20.6  22d 141
2023 01 31 19  07 27 28.123   +68 42 17.68  510957 .98727 126.9 20.6  22d 140
2023 01 31 20  07 21 22.957   +69 21 33.69  507537 .98722 126.0 20.6  22d 139
2023 01 31 21  07 14 49.870   +70 00 29.06  504209 .98717 125.2 20.6  21d 137
2023 01 31 22  07 07 46.221   +70 38 56.10  500977 .98712 124.3 20.6  21d 136
2023 01 31 23  07 00 09.166   +71 16 46.00  497842 .98707 123.4 20.6  21d 134
2023 02 01 00  06 51 55.689   +71 53 48.78  494805 .98702 122.5 20.6  21d 133
2023 02 01 01  06 43 02.642   +72 29 53.09  491869 .98697 121.6 20.6  20d 131
2023 02 01 02  06 33 26.825   +73 04 46.13  489036 .98693 120.7 20.7  20d 130
2023 02 01 03  06 23 05.095   +73 38 13.52  486308 .98688 119.7 20.7  20d 128
2023 02 01 04  06 11 54.537   +74 09 59.26  483686 .98683 118.8 20.7  20d 127
2023 02 01 05  05 59 52.678   +74 39 45.73  481172 .98678 117.9 20.7  19d 126
2023 02 01 06  05 46 57.776   +75 07 13.78  478769 .98673 116.9 20.7  19d 124
2023 02 01 07  05 33 09.158   +75 32 03.04  476478 .98668 115.9 20.7  19d 123
2023 02 01 08  05 18 27.596   +75 53 52.28  474300 .98663 114.9 20.8  19d 122